TRANSPORTER-17 OBJECT G

Last updated on Wed Aug 05 2026 00:02:04 GMT+0000 (Coordinated Universal Time)

1 69875U 26156G 26215.65743201 .00002255 00000+0 23392-3 0 9994 2 69875 97.7480 115.6191 0004698 51.5196 308.6443 14.90954290 4072
UTC large
Height (km)
Speed (km/s)
/
Latitude / Longitude
Inclination (degrees)
Orbital Period (minutes)
Azimuth
Elevation
Range (km)
Doppler Factor

Next 0 passes for location: London (51.5072 / 0.1276)

No passes found over London.